Torna al catalogo

STARLINK-36810

AttivoComunicazioniSSO
NORAD 67898·PAYLOAD·🇺🇸 United States

Lanciato Feb 21, 2026 da Vandenberg Space Force Base

Loading…

Prossimi Passaggi (prossime 24 ore)

TLE

AggiornatoSource: CelesTrak SupGP

Epoca: Sep 14, 2026, 22:52 UTC

1 67898C 26035V   26257.95326389 -.00042671  00000+0 -13250-2 0  2572
2 67898  97.2847 189.8794 0001865  93.6853 237.0809 15.33451112    13

Traccia STARLINK-36810 in tempo reale con AllMySat

Download on the App Store